Location: Chandolas
(44.4033°N, 4.2533°E)
Time: 01:50:05
(UTC+00:00)

Gbstr 26 Del rocket - Pass Details

Date: 15 November 2019
Orbit: 493 x 1264 km, 51.8° (Epoch: 10 December)

Event Time Altitude Azimuth Distance (km) Brightness Sun altitude
Exits shadow 05:59:46 - 272° (W) 1,858 4.9 -7.2°
Reaches altitude 10° 06:00:09 10° 274° (W) 1,715 4.7 -7.2°
Maximum altitude 06:03:40 36° 343° (NNW) 801 3.4 -6.6°
Drops below altitude 10° 06:07:10 10° 52° (NE) 1,710 5.8 -6.0°
Sets 06:09:31 0° 61° (ENE) 2,638 7.0 -5.6°
